Regional Weather Roundup
Issued by NWS

Home | Current Version | Previous Version | Text Only | Print | Product List | Glossary On
Versions: 1 2 3 4 5 6 7 8 9 10 11 12 13 14 15 16 17 18 19 20 21 22 23 24 25 26 27 28 29 30 31 32 33 34 35 36 37 38 39 40 41 42 43 44 45 46 47 48 49 50
000
ASCA42 TJSJ 281110
RWRPR
PUERTO RICO/U.S. VIRGIN ISLANDS HOURLY WEATHER ROUNDUP
NATIONAL WEATHER SERVICE SAN JUAN PR
700 AM AST SAT MAR 28 2015

PRZ001-004-281200-
PUERTO RICO

CITY           SKY/WX    TMP DP  RH WIND       PRES   REMARKS
SAN JUAN LMM   PTCLDY    73  72  94 E3        30.10R
PONCE          PTCLDY    73  66  78 NE6       30.04R
AGUADILLA      CLEAR     70  64  83 CALM      30.11
CEIBA          PTCLDY    75  70  83 SE10      30.12R
$$

PRZ006-007-281200-
U.S. VIRGIN ISLANDS

CITY           SKY/WX    TMP DP  RH WIND       PRES   REMARKS
CHARLOTTE AMA  PTCLDY    79  68  69 SE16      30.10R
$$

HOURLY WEATHER ROUNDUP FOR THE NEWS MEDIA

CITY           SKY/WX    TMP DP  RH WIND       PRES   REMARKS
ORLANDO        PTCLDY    54  38  54 NW8       30.09R
NEW YORK       CLOUDY    37  19  48 N21       29.77R WCI  26
NEWARK         CLOUDY    35  19  52 N17G24    29.79R WCI  25
CHICAGO        CLEAR     20  13  74 N6        30.25R WCI  12
HARTFORD       LGT RAIN  37  36  96 N5        29.68S FOG     WCI  33
BOSTON         FLURRIES  36  30  80 NE20      29.73S WCI  25
DALLAS         PTCLDY    48  39  71 SE7       30.09F
PHILADELPHIA   MOCLDY    35  19  52 N16G28    29.83R WCI  25
LOS ANGELES    CLEAR     60  55  83 E3        30.05S
WASHINGTON DC  PTCLDY    28  12  51 NW16G29   29.95R WCI  16


USA.gov is the U.S. government's official web portal to all federal, state and local government web resources and services.